Weather History for KAXA - June, 2013

Change the Weather History Date:

Thursday, June 27, 2013

  Actual Average Record
Temperature  
Mean Temperature 78 °F -  
Max Temperature 87 °F 80 °F 95 °F (2012)
Min Temperature 68 °F 60 °F 55 °F (2003)
Cooling Degree Days 12    
Growing Degree Days 28 (Base 50)    
Moisture  
Dew Point 60 °F    
Average Humidity 59    
Maximum Humidity 88    
Minimum Humidity 31    
Precipitation  
Precipitation 0.00 in - - ()
Sea Level Pressure  
Sea Level Pressure 29.89 in    
Wind  
Wind Speed 9 mph (WNW)    
Max Wind Speed 21 mph    
Max Gust Speed 29 mph    
Visibility 10 miles    
Events      
Averages and records for this station are not official NWS values.
T = Trace of Precipitation, MM = Missing Value Source: NWS Daily Summary

Daily Weather History Graph

Daily Weather History Graph

Search for Another Location

Airport or City:

Trip Planner

Search our weather history database for the weather conditions in past years. The results will help you decide how hot, cold, wet, or windy it might be!

Date:

Astronomy

Jun. 27, 2013 Rise Set
Actual Time 5:39 AM CDT 9:00 PM CDT
Civil Twilight 5:04 AM CDT 9:35 PM CDT
Nautical Twilight 4:18 AM CDT 10:21 PM CDT
Astronomical Twilight 3:21 AM CDT 11:18 PM CDT
Moon 11:48 PM CDT (6/27) 10:49 AM CDT (6/27)
Length of Visible Light 16h 31m
Length of Day
15h 20m
Waning Gibbous, 76% of the Moon is Illuminated
Jun 27
Waning Gibbous
Jun 29
Last Quarter
Jul 8
New
Jul 15
First Quarter
Jul 22
Full

Hourly Weather History & Observations

Time (CDT) Temp. Heat Index Dew Point Humidity Pressure Visibility Wind Dir Wind Speed Gust Speed Precip Events Conditions
12:15 AM 71.6 °F - 64.4 °F 78% 29.88 in 10.0 mi WNW 5.8 mph - N/A   Clear
12:35 AM 69.8 °F - 64.4 °F 83% 29.88 in 10.0 mi West 5.8 mph - N/A   Clear
1:15 AM 69.8 °F - 62.6 °F 78% 29.88 in 10.0 mi West 6.9 mph - N/A   Clear
1:35 AM 69.8 °F - 62.6 °F 78% 29.88 in 10.0 mi WNW 5.8 mph - N/A   Clear
1:55 AM 71.6 °F - 62.6 °F 73% 29.87 in 10.0 mi Calm Calm - N/A   Clear
2:15 AM 71.6 °F - 62.6 °F 73% 29.88 in 10.0 mi Calm Calm - N/A   Clear
2:35 AM 69.8 °F - 62.6 °F 78% 29.88 in - Calm Calm - N/A   Clear
2:55 AM 69.8 °F - 62.6 °F 78% 29.88 in 10.0 mi West 3.5 mph - N/A   Clear
3:15 AM 69.8 °F - 62.6 °F 78% 29.87 in 10.0 mi WSW 4.6 mph - N/A   Clear
3:35 AM 69.8 °F - 62.6 °F 78% 29.87 in 10.0 mi SSW 3.5 mph - N/A   Clear
3:55 AM 68.0 °F - 62.6 °F 83% 29.87 in 10.0 mi SSW 4.6 mph - N/A   Clear
4:15 AM 68.0 °F - 62.6 °F 83% 29.87 in 10.0 mi SW 3.5 mph - N/A   Clear
4:35 AM 68.0 °F - 64.4 °F 88% 29.88 in 10.0 mi SW 4.6 mph - N/A   Clear
4:55 AM 68.0 °F - 64.4 °F 88% 29.89 in 10.0 mi SW 9.2 mph - N/A   Clear
5:15 AM 68.0 °F - 64.4 °F 88% 29.88 in 10.0 mi SW 10.4 mph - N/A   Clear
5:35 AM 69.8 °F - 64.4 °F 83% 29.89 in 10.0 mi SW 6.9 mph - N/A   Clear
5:55 AM 69.8 °F - 64.4 °F 83% 29.89 in 10.0 mi West 6.9 mph - N/A   Clear
6:15 AM 69.8 °F - 62.6 °F 78% 29.88 in 10.0 mi WSW 5.8 mph - N/A   Clear
6:35 AM 71.6 °F - 62.6 °F 73% 29.88 in 10.0 mi SW 6.9 mph - N/A   Clear
6:55 AM 73.4 °F - 62.6 °F 69% 29.90 in 10.0 mi WSW 8.1 mph - N/A   Clear
7:15 AM 73.4 °F - 62.6 °F 69% 29.90 in 10.0 mi West 10.4 mph - N/A   Partly Cloudy
8:15 AM 73.4 °F - 64.4 °F 73% 29.90 in 10.0 mi West 11.5 mph - N/A   Clear
9:35 AM 77.0 °F - 66.2 °F 69% 29.90 in 10.0 mi NW 11.5 mph - N/A   Clear
9:55 AM 77.0 °F - 64.4 °F 65% 29.90 in 10.0 mi NW 11.5 mph - N/A   Clear
11:35 AM 82.4 °F 82.9 °F 60.8 °F 48% 29.93 in 10.0 mi NW 15.0 mph - N/A   Clear
11:55 AM 82.4 °F 82.9 °F 60.8 °F 48% 29.94 in 10.0 mi WNW 13.8 mph - N/A   Clear
12:35 PM 80.6 °F 82.7 °F 66.2 °F 61% 29.94 in 10.0 mi West 17.3 mph - N/A   Clear
12:55 PM 80.6 °F 82.7 °F 66.2 °F 61% 29.94 in 10.0 mi West 15.0 mph - N/A   Clear
1:15 PM 80.6 °F 82.7 °F 66.2 °F 61% 29.93 in 10.0 mi West 16.1 mph - N/A   Clear
1:35 PM 80.6 °F 83.2 °F 68.0 °F 65% 29.93 in 10.0 mi WNW 15.0 mph 21.9 mph N/A   Clear
1:55 PM 82.4 °F 84.6 °F 66.2 °F 58% 29.93 in 10.0 mi WNW 15.0 mph 21.9 mph N/A   Clear
2:15 PM 82.4 °F 83.9 °F 64.4 °F 54% 29.92 in 10.0 mi WNW 17.3 mph 23.0 mph N/A   Clear
2:35 PM 84.2 °F 85.6 °F 64.4 °F 51% 29.92 in 10.0 mi WNW 16.1 mph 21.9 mph N/A   Clear
2:55 PM 86.0 °F 86.6 °F 62.6 °F 45% 29.92 in 10.0 mi WNW 16.1 mph 27.6 mph N/A   Clear
3:15 PM 86.0 °F 86.6 °F 62.6 °F 45% 29.91 in 10.0 mi West 19.6 mph 26.5 mph N/A   Partly Cloudy
3:35 PM 86.0 °F 86.1 °F 60.8 °F 43% 29.91 in 10.0 mi WNW 15.0 mph 24.2 mph N/A   Partly Cloudy
3:55 PM 86.0 °F 84.5 °F 55.4 °F 35% 29.90 in 10.0 mi NW 16.1 mph 23.0 mph N/A   Partly Cloudy
4:15 PM 86.0 °F 84.5 °F 55.4 °F 35% 29.90 in 10.0 mi WNW 18.4 mph 26.5 mph N/A   Clear
4:35 PM 87.8 °F 85.7 °F 53.6 °F 31% 29.89 in 10.0 mi NW 19.6 mph 28.8 mph N/A   Partly Cloudy
4:55 PM 87.8 °F 85.7 °F 53.6 °F 31% 29.90 in 10.0 mi NW 20.7 mph 27.6 mph N/A   Clear
5:15 PM 87.8 °F 85.7 °F 53.6 °F 31% 29.89 in 10.0 mi NW 13.8 mph 25.3 mph N/A   Clear
5:35 PM 86.0 °F - 51.8 °F 31% 29.89 in 10.0 mi NW 18.4 mph - N/A   Clear
5:55 PM 86.0 °F 84.2 °F 53.6 °F 33% 29.89 in 10.0 mi NW 16.1 mph 25.3 mph N/A   Clear
6:15 PM 86.0 °F 84.2 °F 53.6 °F 33% 29.88 in 10.0 mi NNW 17.3 mph 26.5 mph N/A   Clear
6:35 PM 86.0 °F 84.2 °F 53.6 °F 33% 29.89 in 10.0 mi NW 17.3 mph 26.5 mph N/A   Clear
6:55 PM 86.0 °F 84.2 °F 53.6 °F 33% 29.88 in 10.0 mi NW 13.8 mph 25.3 mph N/A   Clear
7:15 PM 86.0 °F 84.2 °F 53.6 °F 33% 29.88 in 10.0 mi NW 17.3 mph - N/A   Clear
7:35 PM 86.0 °F 84.2 °F 53.6 °F 33% 29.87 in 10.0 mi NNW 16.1 mph 25.3 mph N/A   Clear
7:55 PM 84.2 °F 82.8 °F 53.6 °F 35% 29.88 in 10.0 mi NNW 13.8 mph 20.7 mph N/A   Clear
8:15 PM 82.4 °F 81.4 °F 53.6 °F 37% 29.87 in 10.0 mi NNW 10.4 mph 18.4 mph N/A   Clear
8:35 PM 82.4 °F 81.4 °F 53.6 °F 37% 29.87 in 10.0 mi NNW 9.2 mph 15.0 mph N/A   Clear
8:55 PM 80.6 °F 80.3 °F 53.6 °F 39% 29.87 in 10.0 mi NNW 6.9 mph 15.0 mph N/A   Clear
9:15 PM 78.8 °F - 53.6 °F 42% 29.87 in 10.0 mi NW 6.9 mph - N/A   Clear
9:35 PM 77.0 °F - 55.4 °F 47% 29.87 in 10.0 mi NW 6.9 mph - N/A   Clear
9:55 PM 73.4 °F - 57.2 °F 57% 29.88 in 10.0 mi WNW 5.8 mph - N/A   Clear
10:15 PM 73.4 °F - 57.2 °F 57% 29.87 in 10.0 mi WNW 6.9 mph - N/A   Clear
10:35 PM 69.8 °F - 59.0 °F 68% 29.87 in 10.0 mi West 8.1 mph - N/A   Clear
10:55 PM 69.8 °F - 59.0 °F 68% 29.88 in 10.0 mi West 8.1 mph - N/A   Clear
11:15 PM 69.8 °F - 59.0 °F 68% 29.88 in 10.0 mi West 9.2 mph - N/A   Clear
11:35 PM 71.6 °F - 59.0 °F 64% 29.89 in 10.0 mi West 9.2 mph - N/A   Clear
11:55 PM 69.8 °F - 60.8 °F 73% 29.89 in 10.0 mi West 9.2 mph - N/A   Clear